| time (UTC) | temp F | wind direction | speed MPH | gust MPH | rain 1hr in | rain 24hr in | rain mn in | humidity % | barometer mb |
| 20260505083313 | 65 | 155 | 0.0 | 3.0 | 0.00 | 0.00 | 0.00 | 64 | 1016.1 |
| 20260505082821 | 65 | 159 | 0.0 | 5.0 | 0.00 | 0.00 | 0.00 | 62 | 1016.3 |
| 20260505082313 | 66 | 159 | 1.0 | 5.0 | 0.00 | 0.00 | 0.00 | 61 | 1016.5 |
| 20260505081841 | 66 | 182 | 2.0 | 5.0 | 0.00 | 0.00 | 0.00 | 59 | 1016.5 |
| 20260505081332 | 67 | 182 | 0.0 | 3.0 | 0.00 | 0.00 | 0.00 | 57 | 1016.5 |
| 20260505080824 | 67 | 182 | 1.0 | 8.0 | 0.00 | 0.00 | 0.00 | 54 | 1016.3 |
| 20260505080335 | 67 | 171 | 3.0 | 8.0 | 0.00 | 0.00 | 0.00 | 52 | 1016.5 |
| 20260505075841 | 68 | 177 | 3.0 | 12.0 | 0.00 | 0.00 | 0.00 | 50 | 1016.5 |
| 20260505075332 | 68 | 175 | 3.0 | 12.0 | 0.00 | 0.00 | 0.00 | 48 | 1016.3 |
| 20260505074821 | 69 | 195 | 1.0 | 9.0 | 0.00 | 0.00 | 0.00 | 45 | 1016.3 |
| 20260505074332 | 69 | 172 | 3.0 | 10.0 | 0.00 | 0.00 | 0.00 | 43 | 1016.1 |
| 20260505073841 | 69 | 180 | 3.0 | 14.0 | 0.00 | 0.00 | 0.00 | 42 | 1016.1 |
| 20260505073330 | 69 | 186 | 6.0 | 14.0 | 0.00 | 0.00 | 0.00 | 41 | 1016.1 |
| 20260505072817 | 70 | 159 | 4.0 | 14.0 | 0.00 | 0.00 | 0.00 | 40 | 1016.0 |
| 20260505072330 | 70 | 175 | 4.0 | 10.0 | 0.00 | 0.00 | 0.00 | 40 | 1016.1 |
| 20260505071815 | 70 | 193 | 5.0 | 10.0 | 0.00 | 0.00 | 0.00 | 39 | 1016.1 |
| 20260505071347 | 70 | 184 | 5.0 | 11.0 | 0.00 | 0.00 | 0.00 | 38 | 1016.1 |
| 20260505070815 | 70 | 189 | 3.0 | 11.0 | 0.00 | 0.00 | 0.00 | 38 | 1016.1 |
| 20260505070348 | 70 | 227 | 2.0 | 8.0 | 0.00 | 0.00 | 0.00 | 37 | 1016.1 |
| 20260505065815 | 70 | 181 | 2.0 | 10.0 | 0.00 | 0.00 | 0.00 | 36 | 1016.0 |
| 20260505065326 | 70 | 180 | 6.0 | 12.0 | 0.00 | 0.00 | 0.00 | 36 | 1015.9 |
| 20260505064814 | 70 | 176 | 5.0 | 12.0 | 0.00 | 0.00 | 0.00 | 35 | 1015.9 |
| 20260505064326 | 71 | 184 | 1.0 | 8.0 | 0.00 | 0.00 | 0.00 | 36 | 1015.9 |
| 20260505063814 | 71 | 168 | 1.0 | 6.0 | 0.00 | 0.00 | 0.00 | 35 | 1015.6 |
| 20260505063327 | 71 | 167 | 2.0 | 6.0 | 0.00 | 0.00 | 0.00 | 33 | 1015.4 |
| 20260505062815 | 71 | 159 | 2.0 | 5.0 | 0.00 | 0.00 | 0.00 | 31 | 1015.4 |
| 20260505062332 | 71 | 158 | 1.0 | 6.0 | 0.00 | 0.00 | 0.00 | 30 | 1015.4 |
| 20260505061840 | 71 | 190 | 1.0 | 6.0 | 0.00 | 0.00 | 0.00 | 29 | 1015.4 |
| 20260505061331 | 72 | 176 | 2.0 | 9.0 | 0.00 | 0.00 | 0.00 | 29 | 1015.4 |
| 20260505060818 | 72 | 192 | 2.0 | 15.0 | 0.00 | 0.00 | 0.00 | 28 | 1015.4 |
| 20260505060330 | 72 | 172 | 5.0 | 15.0 | 0.00 | 0.00 | 0.00 | 28 | 1015.3 |
| 20260505055818 | 72 | 190 | 2.0 | 10.0 | 0.00 | 0.00 | 0.00 | 27 | 1015.3 |
| 20260505055329 | 72 | 170 | 3.0 | 14.0 | 0.00 | 0.00 | 0.00 | 27 | 1015.2 |
| 20260505054817 | 72 | 171 | 3.0 | 14.0 | 0.00 | 0.00 | 0.00 | 26 | 1015.5 |
| 20260505054327 | 72 | 176 | 4.0 | 11.0 | 0.00 | 0.00 | 0.00 | 25 | 1015.6 |
| 20260505053815 | 72 | 188 | 7.0 | 11.0 | 0.00 | 0.00 | 0.00 | 24 | 1015.6 |
| 20260505053331 | 72 | 186 | 1.0 | 9.0 | 0.00 | 0.00 | 0.00 | 24 | 1015.8 |
| 20260505052839 | 73 | 173 | 4.0 | 11.0 | 0.00 | 0.00 | 0.00 | 24 | 1015.7 |
| 20260505052349 | 73 | 191 | 4.0 | 11.0 | 0.00 | 0.00 | 0.00 | 24 | 1015.8 |
| 20260505051815 | 73 | 192 | 2.0 | 11.0 | 0.00 | 0.00 | 0.00 | 24 | 1016.0 |
| 20260505051326 | 73 | 185 | 3.0 | 12.0 | 0.00 | 0.00 | 0.00 | 24 | 1016.1 |
| 20260505050832 | 73 | 189 | 5.0 | 12.0 | 0.00 | 0.00 | 0.00 | 23 | 1016.0 |
| 20260505050325 | 73 | 171 | 4.0 | 11.0 | 0.00 | 0.00 | 0.00 | 24 | 1015.9 |
| 20260505041322 | 74 | 190 | 5.0 | 9.0 | 0.00 | 0.00 | 0.00 | 38 | 1015.7 |
| 20260505040830 | 74 | 172 | 3.0 | 6.0 | 0.00 | 0.00 | 0.00 | 38 | 1015.6 |
| 20260505040320 | 74 | 184 | 3.0 | 8.0 | 0.00 | 0.00 | 0.00 | 38 | 1015.6 |
| 20260505035827 | 74 | 191 | 5.0 | 8.0 | 0.00 | 0.00 | 0.00 | 38 | 1015.4 |
| 20260505035322 | 74 | 182 | 3.0 | 8.0 | 0.00 | 0.00 | 0.00 | 37 | 1015.3 |
| 20260505034828 | 74 | 184 | 4.0 | 9.0 | 0.00 | 0.00 | 0.00 | 37 | 1015.2 |
| 20260505034319 | 74 | 162 | 3.0 | 9.0 | 0.00 | 0.00 | 0.00 | 36 | 1015.2 |
| 20260505033847 | 74 | 177 | 3.0 | 7.0 | 0.00 | 0.00 | 0.00 | 36 | 1015.2 |
| 20260505033316 | 75 | 174 | 4.0 | 9.0 | 0.00 | 0.00 | 0.00 | 35 | 1015.1 |
| 20260505032823 | 75 | 178 | 5.0 | 9.0 | 0.00 | 0.00 | 0.00 | 35 | 1015.0 |
| 20260505032314 | 75 | 175 | 2.0 | 7.0 | 0.00 | 0.00 | 0.00 | 34 | 1014.8 |
| 20260505031821 | 75 | 173 | 3.0 | 7.0 | 0.00 | 0.00 | 0.00 | 34 | 1014.6 |
| 20260505031332 | 75 | 180 | 2.0 | 6.0 | 0.00 | 0.00 | 0.00 | 33 | 1014.5 |
| 20260505030818 | 75 | 182 | 2.0 | 6.0 | 0.00 | 0.00 | 0.00 | 33 | 1014.6 |
| 20260505030351 | 75 | 180 | 4.0 | 7.0 | 0.00 | 0.00 | 0.00 | 32 | 1014.7 |
| 20260505025836 | 75 | 180 | 4.0 | 7.0 | 0.00 | 0.00 | 0.00 | 32 | 1014.6 |
| 20260505025325 | 75 | 183 | 3.0 | 7.0 | 0.00 | 0.00 | 0.00 | 32 | 1014.6 |
| 20260505024816 | 76 | 183 | 2.0 | 7.0 | 0.00 | 0.00 | 0.00 | 32 | 1014.6 |
| 20260505024327 | 76 | 177 | 3.0 | 7.0 | 0.00 | 0.00 | 0.00 | 32 | 1014.6 |
| 20260505023814 | 76 | 177 | 3.0 | 7.0 | 0.00 | 0.00 | 0.00 | 31 | 1014.5 |
| 20260505023324 | 76 | 196 | 0.0 | 7.0 | 0.00 | 0.00 | 0.00 | 31 | 1014.5 |
| 20260505022832 | 76 | 197 | 4.0 | 8.0 | 0.00 | 0.00 | 0.00 | 30 | 1014.6 |
| 20260505022320 | 76 | 186 | 3.0 | 8.0 | 0.00 | 0.00 | 0.00 | 30 | 1014.6 |
| 20260505021828 | 76 | 191 | 3.0 | 6.0 | 0.00 | 0.00 | 0.00 | 30 | 1014.7 |
| 20260505021319 | 76 | 192 | 3.0 | 6.0 | 0.00 | 0.00 | 0.00 | 30 | 1014.6 |
| 20260505020826 | 76 | 203 | 2.0 | 5.0 | 0.00 | 0.00 | 0.00 | 30 | 1014.6 |
| 20260505020317 | 77 | 208 | 2.0 | 6.0 | 0.00 | 0.00 | 0.00 | 30 | 1014.5 |
| 20260505015828 | 77 | 195 | 2.0 | 7.0 | 0.00 | 0.00 | 0.00 | 29 | 1014.5 |
| 20260505015319 | 77 | 196 | 4.0 | 7.0 | 0.00 | 0.00 | 0.00 | 29 | 1014.4 |
| 20260505014826 | 77 | 219 | 2.0 | 6.0 | 0.00 | 0.00 | 0.00 | 30 | 1014.3 |
| 20260505014317 | 77 | 242 | 2.0 | 5.0 | 0.00 | 0.00 | 0.00 | 30 | 1014.1 |
| 20260505013823 | 77 | 284 | 2.0 | 4.0 | 0.00 | 0.00 | 0.00 | 30 | 1013.9 |
| 20260505013334 | 77 | 288 | 1.0 | 3.0 | 0.00 | 0.00 | 0.00 | 31 | 1014.1 |
| 20260505012820 | 77 | 288 | 0.0 | 2.0 | 0.00 | 0.00 | 0.00 | 32 | 1014.2 |
| 20260505012350 | 78 | 288 | 1.0 | 3.0 | 0.00 | 0.00 | 0.00 | 31 | 1014.4 |
| 20260505011815 | 78 | 288 | 2.0 | 3.0 | 0.00 | 0.00 | 0.00 | 31 | 1014.2 |
| 20260505011326 | 78 | 288 | 1.0 | 4.0 | 0.00 | 0.00 | 0.00 | 31 | 1014.3 |
| 20260505010831 | 78 | 288 | 1.0 | 4.0 | 0.00 | 0.00 | 0.00 | 31 | 1014.2 |
| 20260505010324 | 78 | 288 | 2.0 | 4.0 | 0.00 | 0.00 | 0.00 | 31 | 1014.2 |
| 20260505005850 | 78 | 288 | 2.0 | 3.0 | 0.00 | 0.00 | 0.00 | 31 | 1014.3 |
| 20260505005323 | 78 | 288 | 1.0 | 3.0 | 0.00 | 0.00 | 0.00 | 31 | 1014.3 |
| 20260505004829 | 78 | 288 | 1.0 | 5.0 | 0.00 | 0.00 | 0.00 | 31 | 1014.3 |
| 20260505004318 | 78 | 288 | 2.0 | 5.0 | 0.00 | 0.00 | 0.00 | 31 | 1014.3 |
| 20260505003826 | 78 | 290 | 1.0 | 3.0 | 0.00 | 0.00 | 0.00 | 31 | 1014.3 |
| 20260505003316 | 78 | 290 | 1.0 | 4.0 | 0.00 | 0.00 | 0.00 | 31 | 1014.2 |
| 20260505002822 | 78 | 290 | 1.0 | 5.0 | 0.00 | 0.00 | 0.00 | 32 | 1014.3 |
| 20260505002332 | 78 | 290 | 2.0 | 5.0 | 0.00 | 0.00 | 0.00 | 32 | 1014.4 |
| 20260505001817 | 78 | 287 | 1.0 | 7.0 | 0.00 | 0.00 | 0.00 | 32 | 1014.4 |
| 20260505001327 | 78 | 287 | 2.0 | 9.0 | 0.00 | 0.00 | 0.00 | 32 | 1014.4 |
| 20260505000813 | 78 | 279 | 1.0 | 5.0 | 0.00 | 0.00 | 0.00 | 32 | 1014.5 |
| 20260505000344 | 78 | 277 | 3.0 | 7.0 | 0.00 | 0.00 | 0.00 | 32 | 1014.6 |
| 20260504235814 | 78 | 277 | 2.0 | 7.0 | 0.00 | 0.00 | 0.00 | 32 | 1014.7 |
| 20260504235343 | 78 | 277 | 2.0 | 8.0 | 0.00 | 0.00 | 0.00 | 32 | 1014.7 |
| 20260504234827 | 78 | 279 | 4.0 | 8.0 | 0.00 | 0.00 | 0.00 | 32 | 1014.8 |
| 20260504234317 | 78 | 254 | 3.0 | 8.0 | 0.00 | 0.00 | 0.00 | 32 | 1014.7 |
| 20260504233823 | 78 | 277 | 3.0 | 8.0 | 0.00 | 0.00 | 0.00 | 32 | 1014.7 |
| 20260504233313 | 78 | 288 | 2.0 | 10.0 | 0.00 | 0.00 | 0.00 | 33 | 1014.7 |
| 20260504232820 | 78 | 286 | 3.0 | 10.0 | 0.00 | 0.00 | 0.00 | 32 | 1014.7 |
| 20260504232329 | 78 | 325 | 3.0 | 6.0 | 0.00 | 0.00 | 0.00 | 32 | 1014.4 |
| 20260504231816 | 78 | 321 | 3.0 | 6.0 | 0.00 | 0.00 | 0.00 | 32 | 1014.5 |
| 20260504231325 | 78 | 288 | 3.0 | 7.0 | 0.00 | 0.00 | 0.00 | 32 | 1014.5 |
| 20260504230830 | 79 | 273 | 3.0 | 9.0 | 0.00 | 0.00 | 0.00 | 32 | 1014.5 |
| 20260504230324 | 79 | 244 | 5.0 | 9.0 | 0.00 | 0.00 | 0.00 | 31 | 1014.6 |
| 20260504225851 | 79 | 286 | 3.0 | 7.0 | 0.00 | 0.00 | 0.00 | 31 | 1014.6 |
| 20260504225320 | 79 | 306 | 3.0 | 10.0 | 0.00 | 0.00 | 0.00 | 31 | 1014.7 |
| 20260504224825 | 79 | 298 | 3.0 | 10.0 | 0.00 | 0.00 | 0.00 | 31 | 1014.9 |
| 20260504224315 | 79 | 355 | 4.0 | 9.0 | 0.00 | 0.00 | 0.00 | 31 | 1014.8 |
| 20260504223820 | 79 | 304 | 4.0 | 12.0 | 0.00 | 0.00 | 0.00 | 32 | 1015.0 |
| 20260504223350 | 79 | 279 | 7.0 | 12.0 | 0.00 | 0.00 | 0.00 | 31 | 1015.0 |
| 20260504222835 | 79 | 232 | 2.0 | 7.0 | 0.00 | 0.00 | 0.00 | 31 | 1014.8 |
| 20260504222324 | 79 | 218 | 3.0 | 10.0 | 0.00 | 0.00 | 0.00 | 31 | 1014.9 |
| 20260504221850 | 79 | 208 | 3.0 | 9.0 | 0.00 | 0.00 | 0.00 | 31 | 1014.9 |
| 20260504221320 | 79 | 184 | 3.0 | 8.0 | 0.00 | 0.00 | 0.00 | 32 | 1014.9 |
| 20260504220846 | 79 | 231 | 4.0 | 8.0 | 0.00 | 0.00 | 0.00 | 31 | 1015.0 |
| 20260504220315 | 79 | 229 | 5.0 | 8.0 | 0.00 | 0.00 | 0.00 | 31 | 1015.0 |
| 20260504215820 | 79 | 203 | 3.0 | 8.0 | 0.00 | 0.00 | 0.00 | 31 | 1014.9 |
| 20260504215315 | 79 | 270 | 4.0 | 8.0 | 0.00 | 0.00 | 0.00 | 32 | 1015.0 |
| 20260504214822 | 78 | 213 | 1.0 | 7.0 | 0.00 | 0.00 | 0.00 | 33 | 1015.2 |
| 20260504214313 | 78 | 198 | 4.0 | 11.0 | 0.00 | 0.00 | 0.00 | 31 | 1015.5 |
| 20260504213818 | 78 | 212 | 6.0 | 13.0 | 0.00 | 0.00 | 0.00 | 31 | 1015.8 |
| 20260504213328 | 78 | 215 | 7.0 | 14.0 | 0.00 | 0.00 | 0.00 | 31 | 1016.0 |
| 20260504212814 | 78 | 229 | 3.0 | 12.0 | 0.00 | 0.00 | 0.00 | 31 | 1016.0 |
| 20260504212323 | 79 | 231 | 5.0 | 11.0 | 0.00 | 0.00 | 0.00 | 30 | 1016.1 |
| 20260504211829 | 79 | 191 | 5.0 | 11.0 | 0.00 | 0.00 | 0.00 | 30 | 1016.1 |
| 20260504211318 | 79 | 184 | 4.0 | 8.0 | 0.00 | 0.00 | 0.00 | 30 | 1016.1 |
| 20260504210824 | 79 | 215 | 3.0 | 10.0 | 0.00 | 0.00 | 0.00 | 30 | 1016.1 |
| 20260504210340 | 79 | 245 | 3.0 | 9.0 | 0.00 | 0.00 | 0.00 | 30 | 1016.0 |
| 20260504205826 | 80 | 202 | 4.0 | 11.0 | 0.00 | 0.00 | 0.00 | 30 | 1016.1 |
| 20260504205317 | 80 | 193 | 6.0 | 11.0 | 0.00 | 0.00 | 0.00 | 30 | 1016.0 |
| 20260504204823 | 80 | 196 | 6.0 | 11.0 | 0.00 | 0.00 | 0.00 | 30 | 1016.1 |
| 20260504204314 | 80 | 213 | 5.0 | 10.0 | 0.00 | 0.00 | 0.00 | 31 | 1016.1 |
| 20260504203821 | 80 | 234 | 4.0 | 11.0 | 0.00 | 0.00 | 0.00 | 30 | 1016.0 |
| 20260504203332 | 80 | 228 | 5.0 | 11.0 | 0.00 | 0.00 | 0.00 | 30 | 1015.8 |
| 20260504202819 | 80 | 169 | 5.0 | 11.0 | 0.00 | 0.00 | 0.00 | 31 | 1015.9 |
| 20260504202330 | 80 | 241 | 4.0 | 10.0 | 0.00 | 0.00 | 0.00 | 31 | 1016.0 |
| 20260504201815 | 80 | 203 | 5.0 | 10.0 | 0.00 | 0.00 | 0.00 | 31 | 1016.0 |
| 20260504201324 | 79 | 217 | 3.0 | 9.0 | 0.00 | 0.00 | 0.00 | 31 | 1016.0 |
| 20260504200836 | 79 | 190 | 3.0 | 9.0 | 0.00 | 0.00 | 0.00 | 31 | 1016.0 |
| 20260504200323 | 79 | 231 | 4.0 | 10.0 | 0.00 | 0.00 | 0.00 | 31 | 1016.0 |
| 20260504195829 | 79 | 169 | 5.0 | 10.0 | 0.00 | 0.00 | 0.00 | 31 | 1016.0 |
| 20260504195320 | 79 | 253 | 4.0 | 9.0 | 0.00 | 0.00 | 0.00 | 30 | 1016.1 |
| 20260504194847 | 79 | 223 | 4.0 | 10.0 | 0.00 | 0.00 | 0.00 | 30 | 1016.1 |
| 20260504194315 | 80 | 240 | 5.0 | 11.0 | 0.00 | 0.00 | 0.00 | 30 | 1016.2 |
| 20260504193823 | 80 | 220 | 4.0 | 11.0 | 0.00 | 0.00 | 0.00 | 30 | 1016.3 |
| 20260504193334 | 80 | 242 | 6.0 | 11.0 | 0.00 | 0.00 | 0.00 | 29 | 1016.4 |
| 20260504192819 | 80 | 254 | 5.0 | 11.0 | 0.00 | 0.00 | 0.00 | 30 | 1016.3 |
| 20260504192330 | 80 | 225 | 7.0 | 11.0 | 0.00 | 0.00 | 0.00 | 30 | 1016.3 |
| 20260504191816 | 79 | 230 | 4.0 | 12.0 | 0.00 | 0.00 | 0.00 | 30 | 1016.3 |
| 20260504191347 | 79 | 254 | 6.0 | 11.0 | 0.00 | 0.00 | 0.00 | 30 | 1016.2 |
| 20260504190851 | 79 | 261 | 6.0 | 11.0 | 0.00 | 0.00 | 0.00 | 29 | 1016.0 |
| 20260504190326 | 79 | 271 | 4.0 | 9.0 | 0.00 | 0.00 | 0.00 | 29 | 1016.0 |
| 20260504185853 | 79 | 232 | 5.0 | 9.0 | 0.00 | 0.00 | 0.00 | 29 | 1016.0 |
| 20260504185323 | 78 | 218 | 3.0 | 8.0 | 0.00 | 0.00 | 0.00 | 30 | 1016.0 |
| 20260504184830 | 78 | 243 | 4.0 | 8.0 | 0.00 | 0.00 | 0.00 | 29 | 1016.0 |
| 20260504184321 | 78 | 261 | 4.0 | 9.0 | 0.00 | 0.00 | 0.00 | 30 | 1015.9 |
| 20260504183828 | 78 | 265 | 4.0 | 12.0 | 0.00 | 0.00 | 0.00 | 29 | 1016.2 |
| 20260504183318 | 78 | 249 | 3.0 | 15.0 | 0.00 | 0.00 | 0.00 | 29 | 1016.4 |
| 20260504182825 | 78 | 264 | 6.0 | 15.0 | 0.00 | 0.00 | 0.00 | 29 | 1016.5 |
| 20260504182316 | 78 | 221 | 6.0 | 12.0 | 0.00 | 0.00 | 0.00 | 29 | 1016.6 |
| 20260504181824 | 78 | 236 | 4.0 | 12.0 | 0.00 | 0.00 | 0.00 | 29 | 1016.6 |
| 20260504181318 | 78 | 179 | 4.0 | 11.0 | 0.00 | 0.00 | 0.00 | 31 | 1016.5 |
| 20260504180844 | 78 | 194 | 6.0 | 11.0 | 0.00 | 0.00 | 0.00 | 31 | 1016.4 |
| 20260504180314 | 77 | 209 | 4.0 | 10.0 | 0.00 | 0.00 | 0.00 | 30 | 1016.1 |
| 20260504175821 | 77 | 186 | 3.0 | 8.0 | 0.00 | 0.00 | 0.00 | 30 | 1016.2 |
| 20260504175329 | 77 | 186 | 3.0 | 8.0 | 0.00 | 0.00 | 0.00 | 30 | 1016.1 |
| 20260504174835 | 77 | 185 | 5.0 | 10.0 | 0.00 | 0.00 | 0.00 | 30 | 1016.1 |
| 20260504174324 | 77 | 200 | 2.0 | 9.0 | 0.00 | 0.00 | 0.00 | 28 | 1016.2 |
| 20260504173851 | 77 | 207 | 5.0 | 10.0 | 0.00 | 0.00 | 0.00 | 29 | 1016.2 |
| 20260504173321 | 77 | 205 | 6.0 | 10.0 | 0.00 | 0.00 | 0.00 | 29 | 1016.2 |
| 20260504172828 | 77 | 196 | 4.0 | 10.0 | 0.00 | 0.00 | 0.00 | 29 | 1016.2 |
| 20260504172319 | 77 | 194 | 5.0 | 12.0 | 0.00 | 0.00 | 0.00 | 30 | 1016.4 |
| 20260504171847 | 77 | 174 | 6.0 | 13.0 | 0.00 | 0.00 | 0.00 | 30 | 1016.5 |
| 20260504171317 | 77 | 178 | 5.0 | 13.0 | 0.00 | 0.00 | 0.00 | 31 | 1016.6 |
| 20260504170829 | 77 | 198 | 6.0 | 10.0 | 0.00 | 0.00 | 0.00 | 31 | 1016.6 |
| 20260504170321 | 76 | 217 | 4.0 | 13.0 | 0.00 | 0.00 | 0.00 | 33 | 1016.8 |
| 20260504160331 | 75 | 172 | 6.0 | 11.0 | 0.00 | 0.00 | 0.00 | 33 | 1016.4 |
| 20260504150825 | 73 | 186 | 3.0 | 8.0 | 0.00 | 0.00 | 0.00 | 42 | 1016.1 |
| 20260504150317 | 73 | 182 | 2.0 | 6.0 | 0.00 | 0.00 | 0.00 | 43 | 1016.0 |
| 20260504141328 | 72 | 184 | 0.0 | 3.0 | 0.00 | 0.00 | 0.00 | 43 | 1015.5 |
| 20260504140816 | 72 | 184 | 1.0 | 5.0 | 0.00 | 0.00 | 0.00 | 43 | 1015.6 |
| 20260504140327 | 71 | 184 | 1.0 | 5.0 | 0.00 | 0.00 | 0.00 | 42 | 1015.7 |
| 20260504130335 | 71 | 206 | 2.0 | 5.0 | 0.00 | 0.00 | 0.00 | 40 | 1015.1 |
| 20260504110352 | 71 | 209 | 0.0 | 0.0 | 0.00 | 0.00 | 0.00 | 41 | 1014.4 |
| 20260504100329 | 73 | 209 | 0.0 | 0.0 | 0.00 | 0.00 | 0.00 | 40 | 1014.6 |